STARLINK-1801, 46701

Orbit data source: Space-Track

STARLINK-1801, 46701 is a payload satellite owned by SpaceX/Seattle (US) in LEO that was launched on Sun, 18 Oct 2020 UTC via an FALCON 9 launch vehicle from the Air Force Eastern Test Range (AFETR). Payload-class satellites include a variety of spacecraft equipped with specific instruments for various scientific and technological missions. These include communications satellites like Starlink; space stations such as the ISS; scientific satellites like the Hubble; Earth observation satellites from companies like Planet Labs, Umbra, and HawkEye 360; GPS; miniature CubeSats for education and research; and military/defense satellites.

Loading next visibility...
Identifier
46701, 2020-073AH
Orbit
LEO
Country
Flag of USUS
Related business
Manufacturer
SpaceX/Seattle
Mission
Partially operational Commercial Communications
Bus & Motor
STARLINK, Unknown motor
Mass
260 kg wet, ~248 kg dry
Launch date (UTC)
2020-10-18 (5 years ago)
Launch vehicle
FALCON 9
Launch site
Air Force Eastern Test Range (AFETR)
Object type
Payload
Rocket body
Debris
Shape & HBR
Box + 1 Pan, 10.1 m
Radar Cross Section
13.562 m², Large (>1 m²)

Expand to show TLE details & history
Last TLE update: 4 hours ago

TLE from 4 hours ago
0 STARLINK-1801
1 46701U 20073AH  26101.33335648  .00139554  00000-0  66557-3 0  9994
2 46701  53.0407  35.0714 0001726 339.7631 120.8786 15.81936419  6002
Epoch: 2026-04-11T08:00Z
TLE epoch observation values (Epoch: 2026-04-11T08:00:01.999Z)
Latitude
51.90056°
Longitude
-177.09038°
Altitude
331.775 km
Speed
7.716 km/s
True Right ascension
09h 29m 53s
True Declination
51° 43' 22"
Sunlit
Object was in daylight at epoch
Visualization orbit readout
Latitude
Unknown
Longitude
Unknown
Altitude
Unknown
Speed
Unknown
Apparent Right ascension
Unknown
Apparent Declination
Unknown
Sunlit
N/A
Visualization observer readout
Local Sidereal Time
18:41:33
Azimuth
Unknown
Elevation
Unknown
Doppler factor
Unknown
Orbital elements
Apogee altitude
326.404 km
Perigee altitude
324.09 km
Semi-major axis
6,703.384 km
Eccentricity
0.00017
Inclination
53.0407°
RAAN
35.0714°
Arg. of periapsis
339.7631°
True anomaly
120.89557°
Mean anomaly
120.8786°
Eccentric anomaly
120.88709°
Mean motion
3.9546 °/min
Orbital period
91.03 mins
BSTAR
0.00066557
Loading maneuver chart data...
Computing Atmospheric mass density...

Documentation

Showing up to 5 results
|